Change the Weather History Date:

Thursday, September 1, 2011

  Actual Average Record
Temperature  
Mean Temperature 78 °F -  
Max Temperature 87 °F 76 °F 92 °F (1953)
Min Temperature 69 °F 53 °F 35 °F (1949)
Cooling Degree Days 13    
Growing Degree Days 28 (Base 50)    
Moisture  
Dew Point 70 °F    
Average Humidity 79    
Maximum Humidity 94    
Minimum Humidity 55    
Precipitation  
Precipitation 0.06 in - - ()
Sea Level Pressure  
Sea Level Pressure 29.75 in    
Wind  
Wind Speed 8 mph (SE)    
Max Wind Speed 17 mph    
Max Gust Speed 23 mph    
Visibility 6 miles    
Events Rain , Thunderstorm    
Averages and records for this station are not official NWS values.
T = Trace of Precipitation, MM = Missing Value Source: NWS Daily Summary

Daily Weather History Graph

Daily Weather History Graph

Search for Another Location

Airport or City:

Trip Planner

Search our weather history database for the weather conditions in past years. The results will help you decide how hot, cold, wet, or windy it might be!

Date:

Astronomy

Sep. 01, 2011 Rise Set
Actual Time 6:42 AM CDT 7:59 PM CDT
Civil Twilight 6:11 AM CDT 8:30 PM CDT
Nautical Twilight 5:34 AM CDT 9:07 PM CDT
Astronomical Twilight 4:54 AM CDT 9:46 PM CDT
Moon 11:21 AM CDT (9/1) 9:31 PM CDT (9/1)
Length of Visible Light 14h 18m
Length of Day
13h 17m
Waxing Crescent, 18% of the Moon is Illuminated
Sep 1
Waxing Crescent
Sep 4
First Quarter
Sep 12
Full
Sep 20
Last Quarter
Sep 27
New

Hourly Weather History & Observations

Time (CDT) Temp. Heat Index Dew Point Humidity Pressure Visibility Wind Dir Wind Speed Gust Speed Precip Events Conditions
12:14 AM 69.8 °F - 66.2 °F 88% 29.85 in 2.5 mi ESE 9.2 mph - N/A   Mostly Cloudy
12:22 AM 69.8 °F - 66.2 °F 88% 29.85 in 2.5 mi ESE 9.2 mph - N/A   Mostly Cloudy
12:41 AM 69.8 °F - 66.2 °F 88% 29.84 in 2.0 mi ESE 9.2 mph - N/A   Overcast
1:01 AM 69.8 °F - 66.2 °F 88% 29.83 in 2.5 mi ESE 9.2 mph - N/A   Mostly Cloudy
1:34 AM 69.8 °F - 66.2 °F 88% 29.83 in 2.0 mi SE 10.4 mph - N/A   Overcast
1:53 AM 69.8 °F - 66.2 °F 88% 29.83 in 2.5 mi SE 10.4 mph - N/A   Mostly Cloudy
2:14 AM 69.8 °F - 66.2 °F 88% 29.82 in 2.5 mi SE 9.2 mph - N/A   Clear
2:34 AM 69.8 °F - 66.2 °F 88% 29.81 in 2.5 mi ESE 9.2 mph - N/A   Clear
2:53 AM 69.8 °F - 66.2 °F 88% 29.81 in 2.5 mi ESE 6.9 mph - N/A   Clear
3:14 AM 69.8 °F - 66.2 °F 88% 29.79 in 2.0 mi ESE 6.9 mph - N/A   Clear
3:33 AM 69.8 °F - 66.2 °F 88% 29.79 in 2.5 mi SE 5.8 mph - N/A   Clear
3:53 AM 69.8 °F - 66.2 °F 88% 29.77 in 2.0 mi SE 8.1 mph - N/A   Clear
4:14 AM 69.8 °F - 66.2 °F 88% 29.76 in 2.5 mi ESE 8.1 mph - N/A   Clear
4:34 AM 69.8 °F - 66.2 °F 88% 29.76 in 2.5 mi SE 8.1 mph - N/A   Scattered Clouds
4:53 AM 71.6 °F - 68.0 °F 88% 29.77 in 3.0 mi SSE 9.2 mph - N/A   Mostly Cloudy
5:14 AM 71.6 °F - 68.0 °F 88% 29.74 in 3.0 mi SE 13.8 mph - N/A   Scattered Clouds
5:33 AM 71.6 °F - 68.0 °F 88% 29.74 in 3.0 mi SE 16.1 mph - N/A   Clear
5:54 AM 71.6 °F - 69.8 °F 94% 29.74 in 4.0 mi SSE 17.3 mph 23.0 mph N/A   Scattered Clouds
6:14 AM 71.6 °F - 69.8 °F 94% 29.75 in 4.0 mi SSE 11.5 mph 20.7 mph N/A   Overcast
6:33 AM 71.6 °F - 69.8 °F 94% 29.74 in 4.0 mi SE 15.0 mph 20.7 mph N/A   Overcast
6:53 AM 71.6 °F - 68.0 °F 88% 29.73 in 3.0 mi SSE 11.5 mph - N/A   Mostly Cloudy
7:34 AM 71.6 °F - 68.0 °F 88% 29.72 in 2.5 mi SE 11.5 mph - N/A   Scattered Clouds
7:54 AM 71.6 °F - 68.0 °F 88% 29.72 in 2.5 mi SE 9.2 mph 16.1 mph N/A   Clear
8:14 AM 73.4 °F - 69.8 °F 88% 29.73 in 3.0 mi SSE 11.5 mph 16.1 mph N/A   Clear
8:34 AM 73.4 °F - 68.0 °F 83% 29.72 in 3.0 mi SSE 10.4 mph 18.4 mph N/A   Haze
9:13 AM 75.2 °F - 69.8 °F 83% 29.74 in 5.0 mi ESE 4.6 mph - N/A   Haze
9:34 AM 75.2 °F - 69.8 °F 83% 29.73 in 7.0 mi SE 4.6 mph - N/A   Scattered Clouds
9:53 AM 77.0 °F - 69.8 °F 78% 29.74 in 7.0 mi Calm Calm - N/A   Clear
10:14 AM 75.2 °F - 69.8 °F 83% 29.75 in 5.0 mi SE 6.9 mph - N/A   Haze
10:34 AM 77.0 °F - 69.8 °F 78% 29.76 in 7.0 mi SE 8.1 mph - N/A   Clear
11:14 AM 78.8 °F - 69.8 °F 74% 29.76 in 7.0 mi SE 4.6 mph - N/A   Scattered Clouds
11:33 AM 80.6 °F 83.9 °F 69.8 °F 70% 29.74 in 7.0 mi ESE 9.2 mph - N/A   Clear
11:53 AM 80.6 °F 83.9 °F 69.8 °F 70% 29.73 in 10.0 mi East 9.2 mph - N/A   Clear
12:14 PM 80.6 °F 83.9 °F 69.8 °F 70% 29.72 in 7.0 mi ENE 5.8 mph - N/A   Clear
12:34 PM 82.4 °F 86.3 °F 69.8 °F 66% 29.72 in 10.0 mi ESE 9.2 mph - N/A   Clear
12:53 PM 82.4 °F 86.3 °F 69.8 °F 66% 29.72 in 10.0 mi ESE 11.5 mph 17.3 mph N/A   Clear
1:14 PM 78.8 °F - 69.8 °F 74% 29.72 in 10.0 mi SE 9.2 mph - N/A   Clear
1:34 PM 77.0 °F - 69.8 °F 78% 29.72 in 10.0 mi SE 9.2 mph - N/A   Clear
2:14 PM 75.2 °F - 71.6 °F 89% 29.74 in 10.0 mi Calm Calm - 0.06 in Rain , Thunderstorm Light Thunderstorms and Rain
2:34 PM 80.6 °F 85.4 °F 73.4 °F 79% 29.73 in 7.0 mi NW 3.5 mph - 0.06 in   Clear
2:53 PM 82.4 °F 87.2 °F 71.6 °F 70% 29.71 in 10.0 mi Calm Calm - 0.06 in   Clear
2:55 PM 82.4 °F 87.2 °F 71.6 °F 70% 29.71 in 10.0 mi ESE 4.6 mph - 0.06 in   Clear
3:14 PM 84.2 °F 89.6 °F 71.6 °F 66% 29.71 in 10.0 mi SSE 3.5 mph - N/A   Clear
3:34 PM 86.0 °F 91.8 °F 71.6 °F 62% 29.70 in 10.0 mi SE 4.6 mph - N/A   Clear
3:53 PM 87.8 °F 92.6 °F 69.8 °F 55% 29.70 in 10.0 mi SSE 3.5 mph - N/A   Clear
4:14 PM 87.8 °F 92.6 °F 69.8 °F 55% 29.70 in 10.0 mi SE 4.6 mph - N/A   Clear
4:34 PM 87.8 °F 92.6 °F 69.8 °F 55% 29.69 in 10.0 mi SE 11.5 mph - N/A   Clear
4:53 PM 87.8 °F 93.8 °F 71.6 °F 58% 29.71 in 10.0 mi SSW 4.6 mph - N/A   Clear
5:14 PM 87.8 °F 93.8 °F 71.6 °F 58% 29.71 in 10.0 mi Calm Calm - N/A   Scattered Clouds
5:34 PM 84.2 °F 89.6 °F 71.6 °F 66% 29.71 in 10.0 mi ESE 4.6 mph - N/A   Mostly Cloudy
5:53 PM 86.0 °F 91.8 °F 71.6 °F 62% 29.72 in 10.0 mi SSE 5.8 mph - N/A   Mostly Cloudy
6:14 PM 84.2 °F 89.6 °F 71.6 °F 66% 29.72 in 10.0 mi SW 3.5 mph - N/A   Scattered Clouds
6:33 PM 82.4 °F 88.2 °F 73.4 °F 74% 29.72 in 10.0 mi NW 3.5 mph - N/A   Mostly Cloudy
6:53 PM 82.4 °F 88.2 °F 73.4 °F 74% 29.72 in 10.0 mi North 4.6 mph - N/A   Mostly Cloudy
7:13 PM 80.6 °F 85.4 °F 73.4 °F 79% 29.72 in 10.0 mi North 4.6 mph - N/A   Scattered Clouds
7:53 PM 78.8 °F - 71.6 °F 78% 29.72 in 10.0 mi North 3.5 mph - N/A   Scattered Clouds
8:14 PM 78.8 °F - 71.6 °F 78% 29.73 in 10.0 mi NNW 3.5 mph - N/A   Scattered Clouds
8:33 PM 77.0 °F - 71.6 °F 83% 29.73 in 7.0 mi NNW 4.6 mph - N/A   Scattered Clouds
8:53 PM 77.0 °F - 71.6 °F 83% 29.74 in 7.0 mi NNW 3.5 mph - N/A   Mostly Cloudy
9:14 PM 75.2 °F - 71.6 °F 89% 29.74 in 7.0 mi NW 4.6 mph - N/A   Scattered Clouds
9:34 PM 75.2 °F - 71.6 °F 89% 29.75 in 7.0 mi WNW 8.1 mph - N/A   Clear
9:53 PM 75.2 °F - 71.6 °F 89% 29.76 in 5.0 mi NW 8.1 mph - N/A   Haze
10:14 PM 75.2 °F - 71.6 °F 89% 29.75 in 5.0 mi NW 9.2 mph - N/A   Clear
10:33 PM 75.2 °F - 69.8 °F 83% 29.75 in 5.0 mi NNW 12.7 mph - N/A   Haze
10:53 PM 73.4 °F - 69.8 °F 88% 29.75 in 7.0 mi NNW 12.7 mph - N/A   Clear
11:13 PM 73.4 °F - 68.0 °F 83% 29.75 in 7.0 mi NNW 12.7 mph - N/A   Clear
11:34 PM 73.4 °F - 68.0 °F 83% 29.75 in 10.0 mi NW 10.4 mph - N/A   Scattered Clouds
11:54 PM 71.6 °F - 66.2 °F 83% 29.75 in 10.0 mi NNW 10.4 mph - N/A   Scattered Clouds